Terug naar catalogus

FENGYUN 1C DEB

ActiefSSO
NORAD 33741·DEBRIS·🇨🇳 China

Gelanceerd May 10, 1999 vanaf Taiyuan Satellite Launch Center

Loading…

Volgende Passages (komende 24 uur)

TLE

VersSource: Space-Track

Epoch: Sep 11, 2026, 22:41 UTC

1 33741U 99025DJE 26254.94577227  .00002473  00000-0  12792-2 0  9994
2 33741  98.5558 160.8749 0128387  30.4998 330.3562 14.11634480607150

Volg FENGYUN 1C DEB in realtime met AllMySat

Download on the App Store